Home   Weather   Korschenbroich   Past weeks

Flag for Germany Past Weather in Korschenbroich, North Rhine-Westphalia, Germany — Yesterday and Last 2 Weeks

Now
61 °F

Clear.


Feels Like: 61 °F
Forecast: 51 / 59 °F
Wind: 2 mph from North

Location: Monchengladbach Airport

Current Time: Oct 1, 2016 at 9:00:09 PM

Latest Report: Oct 1, 2016 at 7:50 PM


Visibility: 10 mi

Pressure: 29.77 "Hg

Humidity: 72%

Dew Point: 52 °F

Location of KorschenbroichLocation

Past Weather in Korschenbroich — Graph

°F

Korschenbroich Temperature Yesterday

Maximum temperature yesterday: 66 °F (at 4:50 PM)
Minimum temperature yesterday: 52 °F (at 8:20 PM)
Average temperature yesterday: 61 °F

High & Low Weather Summary for the Past Weeks

 TemperatureHumidityPressure
High81 °F (Sep 25, 2:50 PM)100% (Sep 17, 7:50 AM)30.33 "Hg (Sep 17, 7:50 AM)
Low45 °F (Sep 27, 7:50 AM)32% (Sep 25, 2:50 PM)29.74 "Hg (Oct 1, 4:20 PM)
Average64 °F66%30.10 "Hg
* Reported Sep 16 7:20 PM — Oct 1 7:50 PM, Korschenbroich, Weather by CustomWeather, © 2016

Note: Actual official high and low records may vary slightly from our data, if they occured in-between our weather recording intervals... More about our weather records

Advertising

Korschenbroich Weather History for the Previous 24 Hours

Scroll right to see more
 ConditionsComfort  
Time TempWeatherWind HumidityBarometerVisibility
7:50 PM
Sat, Oct 1
61 °FClear.2 mph72%29.77 "Hg10 mi
7:20 PM61 °FPassing clouds.3 mph68%29.77 "HgN/A
6:50 PM63 °FPassing clouds.5 mph68%29.74 "HgN/A
6:20 PM64 °FPassing clouds.3 mph64%29.74 "HgN/A
5:50 PM64 °FPassing clouds.6 mph60%29.74 "HgN/A
5:20 PM64 °FPassing clouds.6 mph60%29.74 "HgN/A
4:50 PM66 °FPassing clouds.6 mph56%29.74 "HgN/A
4:20 PM66 °FPassing clouds.5 mph60%29.74 "HgN/A
3:50 PM66 °FPassing clouds.3 mph56%29.77 "HgN/A
3:20 PM63 °FPassing clouds.5 mph68%29.77 "HgN/A
2:50 PM63 °FPartly cloudy.5 mph68%29.77 "HgN/A
2:20 PM63 °FPartly cloudy.3 mph73%29.77 "HgN/A
1:50 PM61 °FPassing clouds.3 mph77%29.77 "HgN/A
1:20 PM61 °FPassing clouds.3 mph77%29.77 "HgN/A
12:50 PM59 °FPartly cloudy.6 mph82%29.80 "HgN/A
12:20 PM59 °FPassing clouds.5 mph82%29.80 "HgN/A
11:50 AM57 °FPassing clouds.6 mph88%29.80 "HgN/A
11:20 AM57 °FPartly cloudy.6 mph88%29.80 "HgN/A
10:50 AM55 °FPartly cloudy.6 mph88%29.80 "HgN/A
10:20 AM55 °FPartly sunny.5 mph88%29.80 "HgN/A
9:50 AM55 °FPassing clouds.5 mph82%29.80 "HgN/A
9:20 AM55 °FPartly sunny.3 mph82%29.80 "HgN/A
8:50 AM55 °FBroken clouds.5 mph82%29.80 "HgN/A
8:20 AM55 °FBroken clouds.5 mph88%29.80 "HgN/A
7:50 AM55 °FPartly sunny.3 mph88%29.83 "Hg5 mi
Weather by CustomWeather, © 2016

See weather overviewHow to use our weather pages